YUNYAO-1 44

导读

YUNYAO-1 44(云遥一号44星)是中国云遥宇航研发的气象遥感卫星,于2025年3月21日在酒泉卫星发射中心通过谷神星一号运载火箭发射,运行于太阳同步轨道。卫星核心搭载GNSS掩星探测载荷,可通过反演GNSS信号折射数据,获取大气层温度、湿度、压力及电离层电子密度信息,服务于气象观测与空间环境探测等领域,是云遥卫星系列的重要组成。

Basic Information
目录编号:
63345
目录名称:
YUNYAO-1 44
国际标识:
2025-059B
轨道中心:
EARTH
卫星名称:
YUNYAO-1 44
卫星全名:
YUNYAO-1 44
卫星状态:
在轨 (已飞行540 天)
发射日期:
2025-03-21 UTC
国别 :
中国 (CN)
星等 :
--
This satellite is enrolled in the Space Conjunction Data Service (SCDS) and the current flight risk assessment level is: No High Risk
Orbit Information
数据来源 国际轨道数据
星历时间: 2026-09-12T14:33:53+0800
7小时前
查看轨道信息
半长轴: 6909.846km
偏心率: 0.0015761
轨道倾角: 97.612°
近地点辐角 214.875°
升交点赤经 76.175°
平近点角 145.145°
近地点: 520.818km
远地点: 542.6km
周期: 95.271分钟
每日圈数: 15.114725
Detailed Information
使用方式:
暂无
2D Orbit Map
3D Orbit Map
Orbit Altitude Analysis Chart
Orbit Inclination Analysis Chart
Orbit Comprehensive Analysis Chart
View Comprehensive Chart
Conjunction Data List
Event ID Objects TCA Miss Dist (km) Collision Risk Probability Collision Risk Index (CRI) Action
CDM_260905-025705-409906-334525
2026-09-05T
02:57:19+0000
1.347 km
极远距离
9.580134E-6 低风险 0.55
CDM_260914-033504-939606-334523
2026-09-14T
03:35:02+0000
2.762 km
极远距离
1.48814E-6 低风险 0.38
Miss Distance Evolution Trend with All Objects
Collision Probability Evolution Trend with All Objects